Tracking 31027 objects as of 19-Jul-2025
HD Live streaming from Space Station
objects crossing your sky now

TITAN 3C TRANSTAGE DEB

Track TITAN 3C TRANSTAGE DEB now!


NORAD ID: 43447
Int'l Code: 1969-013G
Perigee: 36,088.4 km
Apogee: 37,301.3 km
Inclination: 0.4 °
Period: 1,482.4 minutes
Semi major axis: 43065 km
RCS: Unknown
Launch date: February 9, 1969
Source: United States (US)
Launch site: AIR FORCE EASTERN TEST RANGE (AFETR)

Note: This is SATELLITE DEBRIS
Your satellite tracking list
DEWASAT-2
Track 1 satellite(s)




NASA's NSSDC Master Catalog

Two Line Element Set (TLE):
1 43447U 69013G   25197.23904115 -.00000196  00000-0  00000+0 0  9996
2 43447   0.3864  83.6904 0140817  18.7865 259.1035  0.97141312 26002
Source of the keplerian elements: AFSPC